Station Historical Data
Daily Summary for March 21, 2017 Units:  Metric    English   Both
« Previous Day
Next Day »
Daily Weekly Monthly Yearly Custom
  High: Low: Average:
Temperature: 7.7 °C 0.5 °C 3.8 °C
Dew Point: 2.8 °C -4.7 °C -0.4 °C
Humidity: 85% 51% 75%
Wind Speed: 29km/h 0km/h 8.2km/h
Wind Gust: 37km/h - -
Wind- - WSW
Pressure: 1018.2 hPa 1013.1 hPa -
Precipitation: 0 mm    
Historical Graphs
 
 
Tabular Data for March 21, 2017
Time Temperature Dew Point Pressure Wind Wind Speed Wind Gust Humidity Rainfall Rate (Hourly)
00:04 3.2 °C -0.5 °C 1016.5 hPa Calm   3.2 km/h 77% 0 mm
00:09 3.2 °C -0.3 °C 1016.5 hPa Calm   3.2 km/h 78% 0 mm
00:14 3.1 °C -0.3 °C 1016.5 hPa Calm     78% 0 mm
00:19 3.1 °C -0.4 °C 1016.5 hPa Calm     78% 0 mm
00:24 3.1 °C -0.4 °C 1016.5 hPa Calm     78% 0 mm
00:29 3 °C -0.4 °C 1016.1 hPa Calm     78% 0 mm
00:34 2.9 °C -0.3 °C 1016.1 hPa Calm     79% 0 mm
00:39 2.9 °C -0.4 °C 1016.1 hPa Calm     79% 0 mm
00:44 2.9 °C -0.4 °C 1016.1 hPa Calm     79% 0 mm
00:49 2.9 °C -0.3 °C 1016.1 hPa Calm     79% 0 mm
00:54 2.9 °C -0.4 °C 1016.1 hPa Calm     79% 0 mm
00:59 2.8 °C -0.4 °C 1016.1 hPa Calm     79% 0 mm
01:04 2.7 °C -0.6 °C 1016.1 hPa Calm     79% 0 mm
01:09 2.6 °C -0.7 °C 1016.1 hPa Calm     79% 0 mm
01:14 2.4 °C -0.7 °C 1016.1 hPa Calm     80% 0 mm
01:19 2.3 °C -0.8 °C 1016.1 hPa Calm     80% 0 mm
01:24 2.2 °C -0.8 °C 1016.1 hPa Calm     81% 0 mm
01:29 2.1 °C -0.9 °C 1016.1 hPa Calm     81% 0 mm
01:34 1.9 °C -1 °C 1016.1 hPa Calm     81% 0 mm
01:39 1.9 °C -1.1 °C 1016.1 hPa Calm     81% 0 mm
01:44 1.8 °C -0.9 °C 1016.1 hPa Calm     82% 0 mm
01:49 1.7 °C -1.1 °C 1016.1 hPa Calm     82% 0 mm
01:54 1.7 °C -1 °C 1016.1 hPa Calm     82% 0 mm
01:59 1.8 °C -0.9 °C 1016.1 hPa Calm     82% 0 mm
02:04 1.7 °C -1 °C 1016.1 hPa Calm     82% 0 mm
02:09 1.7 °C -1.1 °C 1015.8 hPa Calm     82% 0 mm
02:19 1.7 °C -0.9 °C 1015.8 hPa Calm     83% 0 mm
02:24 1.7 °C -0.8 °C 1015.8 hPa Calm     83% 0 mm
02:29 1.7 °C -0.8 °C 1015.8 hPa Calm     83% 0 mm
02:34 1.8 °C -0.8 °C 1015.8 hPa Calm     83% 0 mm
02:39 1.7 °C -0.8 °C 1015.8 hPa Calm     83% 0 mm
02:44 1.7 °C -0.8 °C 1015.8 hPa Calm     83% 0 mm
02:49 1.8 °C -0.8 °C 1015.8 hPa Calm     83% 0 mm
02:54 1.7 °C -0.8 °C 1015.8 hPa Calm     83% 0 mm
02:59 1.7 °C -0.8 °C 1015.8 hPa Calm     83% 0 mm
03:04 1.9 °C -0.7 °C 1015.8 hPa Calm     83% 0 mm
03:09 1.9 °C -0.7 °C 1015.8 hPa Calm     83% 0 mm
03:14 2 °C -0.6 °C 1015.8 hPa Calm     83% 0 mm
03:19 2.1 °C -0.7 °C 1015.8 hPa Calm     82% 0 mm
03:24 2.1 °C -0.7 °C 1015.8 hPa Calm     82% 0 mm
03:29 2.2 °C -0.6 °C 1015.8 hPa Calm     82% 0 mm
03:34 2.2 °C -0.6 °C 1015.8 hPa Calm     82% 0 mm
03:39 2.2 °C -0.6 °C 1015.8 hPa Calm     82% 0 mm
03:44 2.2 °C -0.6 °C 1015.8 hPa Calm     82% 0 mm
03:49 2.3 °C -0.5 °C 1015.8 hPa Calm     82% 0 mm
03:54 2.3 °C -0.5 °C 1015.8 hPa Calm     82% 0 mm
03:59 2.3 °C -0.5 °C 1015.8 hPa Calm     82% 0 mm
04:04 2.3 °C -0.4 °C 1015.8 hPa Calm     82% 0 mm
04:09 2.3 °C -0.6 °C 1015.8 hPa Calm     81% 0 mm
04:14 2.4 °C -0.6 °C 1015.8 hPa Calm     81% 0 mm
04:19 2.3 °C -0.6 °C 1015.8 hPa Calm     81% 0 mm
04:24 2.3 °C -0.6 °C 1015.8 hPa Calm     81% 0 mm
04:29 2.4 °C -0.6 °C 1015.5 hPa Calm     81% 0 mm
04:34 2.4 °C -0.5 °C 1015.5 hPa South 4.8 km/h 4.8 km/h 81% 0 mm
04:39 2.4 °C -0.5 °C 1015.5 hPa SSW 3.2 km/h 4.8 km/h 81% 0 mm
04:44 2.4 °C -0.5 °C 1015.5 hPa Calm   3.2 km/h 81% 0 mm
04:49 2.4 °C -0.5 °C 1015.1 hPa Calm     81% 0 mm
04:54 2.4 °C -0.5 °C 1015.1 hPa SW 1.6 km/h 8 km/h 81% 0 mm
04:59 2.4 °C -0.5 °C 1015.5 hPa Calm   4.8 km/h 81% 0 mm
05:04 2.4 °C -0.5 °C 1015.1 hPa SW 1.6 km/h 6.4 km/h 81% 0 mm
05:09 2.4 °C -0.6 °C 1015.1 hPa SW 1.6 km/h 6.4 km/h 81% 0 mm
05:14 2.4 °C -0.5 °C 1015.1 hPa SW 1.6 km/h 6.4 km/h 81% 0 mm
05:19 2.4 °C -0.6 °C 1015.1 hPa SW 1.6 km/h 4.8 km/h 81% 0 mm
05:24 2.4 °C -0.6 °C 1015.1 hPa SW 1.6 km/h 6.4 km/h 81% 0 mm
05:29 2.3 °C -0.6 °C 1015.1 hPa SSW 3.2 km/h 6.4 km/h 81% 0 mm
05:34 2.3 °C -0.6 °C 1015.1 hPa SW 3.2 km/h 6.4 km/h 81% 0 mm
05:39 2.3 °C -0.4 °C 1015.1 hPa SW 3.2 km/h 6.4 km/h 82% 0 mm
05:44 2.3 °C -0.5 °C 1015.1 hPa SW 1.6 km/h 6.4 km/h 82% 0 mm
05:49 2.3 °C -0.5 °C 1015.1 hPa Calm   6.4 km/h 82% 0 mm
05:54 2.3 °C -0.5 °C 1015.1 hPa SSW 3.2 km/h 6.4 km/h 82% 0 mm
05:59 2.3 °C -0.5 °C 1015.1 hPa SW 4.8 km/h 8 km/h 82% 0 mm
06:04 2.2 °C -0.6 °C 1015.1 hPa SW 3.2 km/h 8 km/h 82% 0 mm
06:09 2.2 °C -0.6 °C 1015.1 hPa SW 1.6 km/h 4.8 km/h 82% 0 mm
06:14 2.2 °C -0.6 °C 1015.1 hPa WSW 1.6 km/h 6.4 km/h 82% 0 mm
06:19 2.3 °C -0.5 °C 1015.1 hPa Calm   6.4 km/h 82% 0 mm
06:24 2.3 °C -0.5 °C 1015.1 hPa SW 1.6 km/h 8 km/h 82% 0 mm
06:29 2.3 °C -0.5 °C 1015.1 hPa SSW 4.8 km/h 8 km/h 82% 0 mm
06:34 2.3 °C -0.4 °C 1015.1 hPa WSW 4.8 km/h 9.7 km/h 82% 0 mm
06:39 2.3 °C -0.4 °C 1015.1 hPa WSW 4.8 km/h 12.9 km/h 82% 0 mm
06:44 2.4 °C -0.4 °C 1015.1 hPa WSW 4.8 km/h 12.9 km/h 82% 0 mm
06:49 2.4 °C -0.4 °C 1015.1 hPa WSW 3.2 km/h 8 km/h 82% 0 mm
06:54 2.3 °C -0.4 °C 1015.1 hPa SW 6.4 km/h 8 km/h 82% 0 mm
06:59 2.3 °C -0.4 °C 1015.1 hPa WSW 3.2 km/h 8 km/h 82% 0 mm
07:04 2.3 °C -0.4 °C 1015.5 hPa WSW 3.2 km/h 8 km/h 82% 0 mm
07:09 2.3 °C -0.4 °C 1015.5 hPa WSW 4.8 km/h 8 km/h 82% 0 mm
07:14 2.4 °C -0.4 °C 1015.5 hPa WSW 4.8 km/h 8 km/h 82% 0 mm
07:19 2.4 °C -0.4 °C 1015.5 hPa WSW 4.8 km/h 9.7 km/h 82% 0 mm
07:24 2.4 °C -0.4 °C 1015.5 hPa WSW 3.2 km/h 8 km/h 82% 0 mm
07:29 2.4 °C -0.3 °C 1015.5 hPa WSW 3.2 km/h 8 km/h 82% 0 mm
07:34 2.4 °C -0.3 °C 1015.5 hPa WSW 4.8 km/h 11.3 km/h 82% 0 mm
07:39 2.4 °C -0.3 °C 1015.5 hPa WSW 4.8 km/h 6.4 km/h 82% 0 mm
07:44 2.4 °C -0.3 °C 1015.5 hPa WSW 3.2 km/h 6.4 km/h 82% 0 mm
07:49 2.4 °C -0.2 °C 1015.5 hPa WSW 3.2 km/h 6.4 km/h 83% 0 mm
07:54 2.4 °C -0.2 °C 1015.5 hPa SW 3.2 km/h 6.4 km/h 83% 0 mm
07:59 2.4 °C -0.2 °C 1015.5 hPa SW 3.2 km/h 8 km/h 83% 0 mm
08:04 2.3 °C -0.3 °C 1015.5 hPa SW 3.2 km/h 8 km/h 83% 0 mm
08:09 2.2 °C -0.4 °C 1015.5 hPa WSW 8 km/h 8 km/h 83% 0 mm
08:14 2.2 °C -0.2 °C 1015.8 hPa WSW 6.4 km/h 8 km/h 84% 0 mm
08:19 2.2 °C -0.2 °C 1015.8 hPa West 3.2 km/h 9.7 km/h 84% 0 mm
08:29 2.2 °C -0.2 °C 1015.8 hPa SW 4.8 km/h 6.4 km/h 84% 0 mm
08:34 2.3 °C 0 °C 1015.5 hPa SW 4.8 km/h 8 km/h 85% 0 mm
08:39 2.4 °C 0.1 °C 1015.8 hPa SW 6.4 km/h 6.4 km/h 85% 0 mm
08:44 2.4 °C 0 °C 1015.5 hPa SW 3.2 km/h 6.4 km/h 84% 0 mm
08:49 2.5 °C 0.1 °C 1015.5 hPa SW 4.8 km/h 9.7 km/h 84% 0 mm
08:54 2.6 °C 0.1 °C 1015.5 hPa SW 4.8 km/h 9.7 km/h 84% 0 mm
08:59 2.6 °C 0.1 °C 1015.8 hPa SW 4.8 km/h 9.7 km/h 84% 0 mm
09:04 2.4 °C 0 °C 1015.8 hPa SW 4.8 km/h 9.7 km/h 84% 0 mm
09:09 2.7 °C 0.4 °C 1015.5 hPa SW 4.8 km/h 8 km/h 85% 0 mm
09:14 3.1 °C 0.6 °C 1015.5 hPa WSW 3.2 km/h 8 km/h 84% 0 mm
09:24 3.4 °C 0.7 °C 1015.8 hPa SW 3.2 km/h 8 km/h 82% 0 mm
09:29 3.6 °C 0.8 °C 1015.5 hPa Calm   11.3 km/h 82% 0 mm
09:34 3.8 °C 0.8 °C 1015.5 hPa SW 4.8 km/h 11.3 km/h 81% 0 mm
09:39 3.9 °C 0.9 °C 1015.5 hPa WSW 3.2 km/h 9.7 km/h 81% 0 mm
09:44 4.1 °C 1.1 °C 1015.8 hPa WSW 3.2 km/h 11.3 km/h 81% 0 mm
09:49 4.3 °C 1.3 °C 1015.8 hPa SW 6.4 km/h 11.3 km/h 81% 0 mm
09:54 4.3 °C 1.1 °C 1015.8 hPa SW 6.4 km/h 11.3 km/h 80% 0 mm
09:59 4.3 °C 1.2 °C 1015.5 hPa SW 6.4 km/h 14.5 km/h 80% 0 mm
10:04 4.3 °C 1.1 °C 1015.5 hPa SW 8 km/h 17.7 km/h 80% 0 mm
10:09 4.4 °C 1.3 °C 1015.8 hPa SW 8 km/h 17.7 km/h 80% 0 mm
10:14 4.6 °C 1.4 °C 1015.5 hPa SSW 4.8 km/h 14.5 km/h 80% 0 mm
10:19 4.7 °C 1.3 °C 1015.8 hPa SW 8 km/h 14.5 km/h 79% 0 mm
10:24 4.8 °C 1.6 °C 1015.8 hPa SW 8 km/h 14.5 km/h 80% 0 mm
10:29 4.7 °C 1.4 °C 1015.8 hPa West 6.4 km/h 17.7 km/h 79% 0 mm
10:34 4.7 °C 1.6 °C 1015.8 hPa SSW 8 km/h 17.7 km/h 80% 0 mm
10:39 4.7 °C 1.4 °C 1015.8 hPa SW 9.7 km/h 17.7 km/h 79% 0 mm
10:44 4.9 °C 1.7 °C 1015.8 hPa SSW 14.5 km/h 16.1 km/h 80% 0 mm
10:49 4.8 °C 1.5 °C 1015.8 hPa SW 9.7 km/h 16.1 km/h 79% 0 mm
10:54 5.1 °C 1.7 °C 1015.8 hPa SW 9.7 km/h 16.1 km/h 79% 0 mm
10:59 5.1 °C 1.8 °C 1015.8 hPa SW 8 km/h 14.5 km/h 79% 0 mm
11:04 5.3 °C 1.8 °C 1015.8 hPa SW 6.4 km/h 14.5 km/h 78% 0 mm
11:09 5.6 °C 2.1 °C 1015.8 hPa WSW 8 km/h 14.5 km/h 78% 0 mm
11:14 5.8 °C 1.9 °C 1015.8 hPa WSW 8 km/h 16.1 km/h 76% 0 mm
11:19 5.9 °C 2 °C 1015.5 hPa SW 9.7 km/h 19.3 km/h 76% 0 mm
11:24 5.9 °C 2.1 °C 1015.8 hPa WSW 11.3 km/h 20.9 km/h 76% 0 mm
11:29 5.8 °C 1.9 °C 1015.8 hPa WSW 12.9 km/h 25.7 km/h 76% 0 mm
11:34 5.9 °C 2.1 °C 1015.8 hPa WSW 12.9 km/h 25.7 km/h 76% 0 mm
11:39 6 °C 2.1 °C 1015.8 hPa WSW 14.5 km/h 22.5 km/h 76% 0 mm
11:44 6.1 °C 2 °C 1015.8 hPa SW 11.3 km/h 19.3 km/h 75% 0 mm
11:49 6 °C 1.9 °C 1015.8 hPa WSW 12.9 km/h 24.1 km/h 75% 0 mm
11:54 5.7 °C 1.8 °C 1015.8 hPa WSW 12.9 km/h 24.1 km/h 76% 0 mm
11:59 5.7 °C 2 °C 1015.8 hPa SW 14.5 km/h 24.1 km/h 77% 0 mm
12:04 5.8 °C 2.1 °C 1015.8 hPa WSW 12.9 km/h 20.9 km/h 77% 0 mm
12:09 5.9 °C 2.1 °C 1015.8 hPa WNW 19.3 km/h 25.7 km/h 76% 0 mm
12:14 5.9 °C 2.1 °C 1015.5 hPa SW 11.3 km/h 24.1 km/h 76% 0 mm
12:19 6.1 °C 2.2 °C 1015.5 hPa WSW 16.1 km/h 20.9 km/h 76% 0 mm
12:24 6.1 °C 2.3 °C 1015.5 hPa SW 12.9 km/h 24.1 km/h 77% 0 mm
12:29 6.3 °C 2.4 °C 1015.8 hPa SW 12.9 km/h 24.1 km/h 76% 0 mm
12:34 6.3 °C 2.3 °C 1015.8 hPa SW 12.9 km/h 25.7 km/h 76% 0 mm
12:39 6.4 °C 2.3 °C 1015.8 hPa WSW 12.9 km/h 25.7 km/h 75% 0 mm
12:44 6.3 °C 2.2 °C 1015.8 hPa WSW 12.9 km/h 29 km/h 75% 0 mm
12:49 6.6 °C 2.6 °C 1015.5 hPa SW 9.7 km/h 24.1 km/h 76% 0 mm
12:54 6.8 °C 2.8 °C 1015.8 hPa WSW 11.3 km/h 24.1 km/h 76% 0 mm
12:59 6.6 °C 2.3 °C 1015.5 hPa WSW 11.3 km/h 25.7 km/h 74% 0 mm
13:04 6.4 °C 2.3 °C 1015.5 hPa WSW 11.3 km/h 22.5 km/h 75% 0 mm
13:09 6.6 °C 2.7 °C 1015.5 hPa SW 11.3 km/h 20.9 km/h 76% 0 mm
13:14 6.7 °C 2.3 °C 1015.8 hPa SW 17.7 km/h 24.1 km/h 74% 0 mm
13:19 6.1 °C 2.2 °C 1015.5 hPa WSW 20.9 km/h 27.4 km/h 76% 0 mm
13:24 6.6 °C 2.6 °C 1015.5 hPa WNW 11.3 km/h 24.1 km/h 76% 0 mm
13:29 6.4 °C 2.3 °C 1015.5 hPa WSW 14.5 km/h 27.4 km/h 75% 0 mm
13:34 6.2 °C 1.9 °C 1015.5 hPa WSW 16.1 km/h 27.4 km/h 74% 0 mm
13:39 6.7 °C 2.6 °C 1015.1 hPa WSW 14.5 km/h 27.4 km/h 75% 0 mm
13:44 6.4 °C 2.2 °C 1015.1 hPa WSW 12.9 km/h 25.7 km/h 74% 0 mm
13:49 6.9 °C 2.2 °C 1015.1 hPa WSW 12.9 km/h 25.7 km/h 72% 0 mm
13:54 7.1 °C 2.3 °C 1015.1 hPa WSW 11.3 km/h 27.4 km/h 72% 0 mm
13:59 6.8 °C 2.1 °C 1015.1 hPa SW 14.5 km/h 30.6 km/h 72% 0 mm
14:04 6.6 °C 1.7 °C 1014.8 hPa WSW 19.3 km/h 33.8 km/h 71% 0 mm
14:09 6.7 °C 1.8 °C 1014.8 hPa SW 20.9 km/h 29 km/h 71% 0 mm
14:14 6.7 °C 1.6 °C 1014.8 hPa SW 11.3 km/h 29 km/h 70% 0 mm
14:19 7.1 °C 2.2 °C 1014.8 hPa SW 8 km/h 22.5 km/h 71% 0 mm
14:24 7.6 °C 2.6 °C 1014.4 hPa South 14.5 km/h 19.3 km/h 71% 0 mm
14:29 7.5 °C 1.8 °C 1014.4 hPa West 8 km/h 29 km/h 67% 0 mm
14:34 7.4 °C 1.3 °C 1014.4 hPa WSW 12.9 km/h 29 km/h 65% 0 mm
14:39 7.6 °C 1.4 °C 1014.4 hPa WSW 12.9 km/h 25.7 km/h 65% 0 mm
14:44 7.3 °C 0.7 °C 1014.1 hPa WSW 12.9 km/h 25.7 km/h 63% 0 mm
14:49 7.7 °C 1.3 °C 1014.1 hPa WSW 12.9 km/h 25.7 km/h 64% 0 mm
14:54 7.4 °C 0.4 °C 1014.1 hPa WSW 12.9 km/h 24.1 km/h 61% 0 mm
14:59 7.6 °C 0.3 °C 1014.1 hPa WSW 22.5 km/h 27.4 km/h 60% 0 mm
15:04 7.3 °C -0.7 °C 1014.1 hPa WSW 14.5 km/h 30.6 km/h 57% 0 mm
15:09 7.3 °C -1.2 °C 1014.1 hPa West 12.9 km/h 30.6 km/h 55% 0 mm
15:14 7.6 °C -1.2 °C 1013.8 hPa West 12.9 km/h 25.7 km/h 54% 0 mm
15:19 7.5 °C -2 °C 1013.8 hPa West 20.9 km/h 30.6 km/h 51% 0 mm
15:24 7.5 °C -1.5 °C 1013.8 hPa WSW 14.5 km/h 25.7 km/h 53% 0 mm
15:29 7.3 °C -2.2 °C 1013.8 hPa West 9.7 km/h 32.2 km/h 51% 0 mm
15:34 7.5 °C -1.2 °C 1013.8 hPa WSW 16.1 km/h 32.2 km/h 54% 0 mm
15:39 7.4 °C -1.8 °C 1013.4 hPa WSW 14.5 km/h 30.6 km/h 52% 0 mm
15:44 7.4 °C -1.3 °C 1013.4 hPa WSW 14.5 km/h 25.7 km/h 54% 0 mm
15:49 7.2 °C -1.3 °C 1013.4 hPa WSW 14.5 km/h 27.4 km/h 55% 0 mm
15:54 7.2 °C -1.6 °C 1013.4 hPa WSW 16.1 km/h 30.6 km/h 54% 0 mm
15:59 7.2 °C -1.7 °C 1013.4 hPa SSW 14.5 km/h 27.4 km/h 53% 0 mm
16:04 7.4 °C -1.3 °C 1013.4 hPa WSW 14.5 km/h 27.4 km/h 54% 0 mm
16:09 7.2 °C -2 °C 1013.4 hPa SW 14.5 km/h 33.8 km/h 52% 0 mm
16:14 7 °C -1.4 °C 1013.4 hPa West 9.7 km/h 25.7 km/h 55% 0 mm
16:19 7.1 °C -1.6 °C 1013.4 hPa WSW 17.7 km/h 27.4 km/h 54% 0 mm
16:24 7.1 °C -1.3 °C 1013.1 hPa West 29 km/h 29 km/h 55% 0 mm
16:29 6.9 °C -0.3 °C 1013.4 hPa SW 17.7 km/h 29 km/h 60% 0 mm
16:34 7.1 °C 0.9 °C 1013.1 hPa WSW 16.1 km/h 29 km/h 65% 0 mm
16:39 6.8 °C 1.3 °C 1013.1 hPa WSW 14.5 km/h 29 km/h 68% 0 mm
16:44 6.6 °C 1.7 °C 1013.1 hPa WSW 16.1 km/h 32.2 km/h 71% 0 mm
16:49 6.4 °C 1.6 °C 1013.1 hPa West 19.3 km/h 30.6 km/h 71% 0 mm
16:54 6.3 °C 1.8 °C 1013.1 hPa SW 19.3 km/h 27.4 km/h 73% 0 mm
16:59 6.4 °C 1.9 °C 1013.1 hPa SW 16.1 km/h 32.2 km/h 73% 0 mm
17:04 6.3 °C 1.8 °C 1013.1 hPa WSW 16.1 km/h 30.6 km/h 73% 0 mm
17:09 6.1 °C 1.6 °C 1013.1 hPa WSW 17.7 km/h 32.2 km/h 73% 0 mm
17:14 5.9 °C 1.7 °C 1013.1 hPa WSW 17.7 km/h 37 km/h 74% 0 mm
17:19 5.8 °C 1.7 °C 1013.1 hPa WSW 16.1 km/h 37 km/h 75% 0 mm
17:24 5.8 °C 1.7 °C 1013.1 hPa WSW 11.3 km/h 27.4 km/h 75% 0 mm
17:29 5.9 °C 1.6 °C 1013.1 hPa WSW 20.9 km/h 32.2 km/h 74% 0 mm
17:39 5.7 °C 1.6 °C 1013.1 hPa WSW 14.5 km/h 29 km/h 75% 0 mm
17:44 5.6 °C 1.4 °C 1013.1 hPa SW 16.1 km/h 24.1 km/h 75% 0 mm
17:49 5.5 °C 1.6 °C 1013.4 hPa West 12.9 km/h 24.1 km/h 76% 0 mm
17:54 5.4 °C 1.6 °C 1013.4 hPa WSW 6.4 km/h 27.4 km/h 76% 0 mm
17:59 5.2 °C 1.4 °C 1013.4 hPa WSW 11.3 km/h 20.9 km/h 77% 0 mm
18:04 4.8 °C 1.1 °C 1013.4 hPa WSW 17.7 km/h 22.5 km/h 77% 0 mm
18:09 4.8 °C 1.3 °C 1013.8 hPa WSW 12.9 km/h 27.4 km/h 78% 0 mm
18:14 4.7 °C 1.2 °C 1013.4 hPa WSW 14.5 km/h 29 km/h 78% 0 mm
18:19 4.6 °C 1.3 °C 1013.8 hPa WSW 14.5 km/h 29 km/h 79% 0 mm
18:24 4.3 °C 1.1 °C 1013.8 hPa WSW 12.9 km/h 25.7 km/h 80% 0 mm
18:29 4.2 °C 1 °C 1013.8 hPa WSW 12.9 km/h 25.7 km/h 80% 0 mm
18:34 4.1 °C 0.9 °C 1013.8 hPa WSW 14.5 km/h 25.7 km/h 80% 0 mm
18:39 4.1 °C 1.1 °C 1013.8 hPa WSW 8 km/h 20.9 km/h 81% 0 mm
18:44 3.9 °C 1 °C 1014.1 hPa West 9.7 km/h 20.9 km/h 81% 0 mm
18:49 3.8 °C 0.9 °C 1014.1 hPa WNW 6.4 km/h 14.5 km/h 81% 0 mm
18:54 3.9 °C 0.9 °C 1014.1 hPa West 9.7 km/h 16.1 km/h 81% 0 mm
18:59 3.9 °C 1 °C 1014.4 hPa WSW 6.4 km/h 12.9 km/h 81% 0 mm
19:04 3.8 °C 0.9 °C 1014.4 hPa West 9.7 km/h 14.5 km/h 81% 0 mm
19:09 3.8 °C 0.8 °C 1014.4 hPa WSW 4.8 km/h 14.5 km/h 81% 0 mm
19:14 3.8 °C 0.8 °C 1014.4 hPa WSW 4.8 km/h 11.3 km/h 81% 0 mm
19:19 4 °C 0.5 °C 1014.4 hPa WNW 6.4 km/h 22.5 km/h 78% 0 mm
19:24 4.9 °C -1.3 °C 1014.4 hPa WNW 11.3 km/h 22.5 km/h 64% 0 mm
19:29 5.2 °C -1.9 °C 1014.8 hPa WNW 12.9 km/h 24.1 km/h 60% 0 mm
19:34 5.3 °C -1.9 °C 1014.8 hPa NW 16.1 km/h 20.9 km/h 60% 0 mm
19:39 5.1 °C -2 °C 1014.8 hPa NNW 6.4 km/h 22.5 km/h 60% 0 mm
19:44 4.9 °C -1.9 °C 1014.8 hPa NW 11.3 km/h 35.4 km/h 61% 0 mm
19:49 4.8 °C -2.1 °C 1014.8 hPa NW 11.3 km/h 35.4 km/h 61% 0 mm
19:54 4.7 °C -2 °C 1014.8 hPa NNW 11.3 km/h 29 km/h 62% 0 mm
19:59 4.5 °C -2.2 °C 1015.1 hPa NW 4.8 km/h 25.7 km/h 62% 0 mm
20:04 4.3 °C -2.1 °C 1015.1 hPa NW 19.3 km/h 25.7 km/h 63% 0 mm
20:09 4.2 °C -2.2 °C 1015.1 hPa NW 6.4 km/h 22.5 km/h 63% 0 mm
20:14 3.9 °C -2.4 °C 1015.1 hPa NW 11.3 km/h 24.1 km/h 63% 0 mm
20:19 3.8 °C -2.6 °C 1015.5 hPa NW 11.3 km/h 24.1 km/h 63% 0 mm
20:24 3.8 °C -2.8 °C 1015.5 hPa NW 11.3 km/h 24.1 km/h 62% 0 mm
20:29 3.7 °C -2.9 °C 1015.8 hPa NW 11.3 km/h 25.7 km/h 62% 0 mm
20:34 3.6 °C -3.1 °C 1015.8 hPa NW 11.3 km/h 25.7 km/h 62% 0 mm
20:39 3.4 °C -3.2 °C 1015.8 hPa NW 9.7 km/h 22.5 km/h 62% 0 mm
20:44 3.4 °C -3.2 °C 1016.1 hPa NW 11.3 km/h 22.5 km/h 62% 0 mm
20:49 3.3 °C -3.3 °C 1016.1 hPa NW 20.9 km/h 25.7 km/h 62% 0 mm
20:54 3.2 °C -3.4 °C 1016.1 hPa West 9.7 km/h 20.9 km/h 62% 0 mm
20:59 3.1 °C -3.3 °C 1016.5 hPa WNW 8 km/h 22.5 km/h 63% 0 mm
21:04 2.9 °C -3.4 °C 1016.5 hPa NW 11.3 km/h 20.9 km/h 63% 0 mm
21:09 2.7 °C -3.6 °C 1016.5 hPa North 17.7 km/h 27.4 km/h 63% 0 mm
21:14 2.6 °C -3.8 °C 1016.5 hPa NW 19.3 km/h 33.8 km/h 63% 0 mm
21:19 2.3 °C -4 °C 1016.8 hPa NW 16.1 km/h 33.8 km/h 63% 0 mm
21:24 2.1 °C -4.2 °C 1016.8 hPa NW 12.9 km/h 29 km/h 63% 0 mm
21:29 1.9 °C -4.4 °C 1016.8 hPa NW 12.9 km/h 30.6 km/h 63% 0 mm
21:34 1.8 °C -4.3 °C 1016.8 hPa NW 12.9 km/h 30.6 km/h 64% 0 mm
21:39 1.7 °C -4.4 °C 1016.8 hPa NW 11.3 km/h 24.1 km/h 64% 0 mm
21:44 1.5 °C -4.6 °C 1016.8 hPa NW 4.8 km/h 16.1 km/h 64% 0 mm
21:49 1.3 °C -4.7 °C 1016.8 hPa WNW 17.7 km/h 27.4 km/h 64% 0 mm
21:54 1.4 °C -4.7 °C 1016.8 hPa WNW 11.3 km/h 29 km/h 64% 0 mm
21:59 1.3 °C -4.7 °C 1016.8 hPa North 3.2 km/h 19.3 km/h 64% 0 mm
22:04 1.2 °C -4.7 °C 1016.8 hPa WNW 11.3 km/h 16.1 km/h 65% 0 mm
22:09 1.1 °C -4.7 °C 1017.2 hPa West 8 km/h 29 km/h 65% 0 mm
22:14 1.1 °C -4.6 °C 1017.2 hPa NW 12.9 km/h 29 km/h 66% 0 mm
22:19 1 °C -4.7 °C 1017.2 hPa WNW 14.5 km/h 25.7 km/h 66% 0 mm
22:24 0.9 °C -4.6 °C 1017.2 hPa NW 11.3 km/h 25.7 km/h 67% 0 mm
22:29 0.8 °C -4.4 °C 1017.2 hPa North 14.5 km/h 24.1 km/h 68% 0 mm
22:34 0.8 °C -4.3 °C 1017.5 hPa NW 6.4 km/h 20.9 km/h 69% 0 mm
22:39 0.7 °C -4.4 °C 1017.5 hPa NW 12.9 km/h 22.5 km/h 69% 0 mm
22:44 0.7 °C -4.1 °C 1017.5 hPa NW 14.5 km/h 20.9 km/h 70% 0 mm
22:49 0.8 °C -4.1 °C 1017.5 hPa NW 6.4 km/h 19.3 km/h 70% 0 mm
22:54 0.8 °C -3.8 °C 1017.5 hPa WNW 11.3 km/h 22.5 km/h 71% 0 mm
22:59 0.9 °C -3.8 °C 1017.5 hPa NW 11.3 km/h 24.1 km/h 71% 0 mm
23:04 0.8 °C -3.8 °C 1017.5 hPa NW 11.3 km/h 25.7 km/h 71% 0 mm
23:09 0.8 °C -3.8 °C 1017.5 hPa NW 11.3 km/h 25.7 km/h 71% 0 mm
23:14 0.8 °C -3.9 °C 1017.5 hPa NW 9.7 km/h 25.7 km/h 71% 0 mm
23:19 0.8 °C -3.9 °C 1017.8 hPa NNW 6.4 km/h 19.3 km/h 71% 0 mm
23:24 0.8 °C -3.7 °C 1017.8 hPa WNW 17.7 km/h 22.5 km/h 72% 0 mm
23:29 0.9 °C -3.6 °C 1017.8 hPa NW 9.7 km/h 22.5 km/h 72% 0 mm
23:34 0.9 °C -3.6 °C 1017.8 hPa West 17.7 km/h 20.9 km/h 72% 0 mm
23:39 1 °C -3.5 °C 1017.8 hPa WNW 12.9 km/h 24.1 km/h 72% 0 mm
23:44 1.1 °C -3.4 °C 1017.8 hPa NE 16.1 km/h 25.7 km/h 72% 0 mm
23:49 0.9 °C -3.6 °C 1018.2 hPa NNE 11.3 km/h 24.1 km/h 72% 0 mm
23:54 0.7 °C -3.8 °C 1018.2 hPa NNW 17.7 km/h 20.9 km/h 72% 0 mm
23:59 0.5 °C -3.8 °C 1018.2 hPa NNW 11.3 km/h 25.7 km/h 73% 0 mm
Buffalo, New York, USA
Compliments of Weather Underground - 2.5 mb